Location: Cardiff
(53.7833°N, 113.6000°W)
Time: 19:11:51
(UTC+00:00)

NOAA 15 - Pass Details

Date: 04 December 2023
Orbit: 796 x 810 km, 98.6° (Epoch: 21 February)

Event Time Altitude Azimuth Distance (km) Brightness Sun altitude
Rises 01:24:45 0° 142° (SE) 3,321 7.6 -17.8°
Reaches altitude 10° 01:27:09 10° 137° (SE) 2,393 6.8 -18.1°
Maximum altitude 01:32:12 47° 65° (ENE) 1,062 4.8 -18.9°
Drops below altitude 10° 01:37:16 10° 353° (N) 2,401 7.0 -19.6°
Sets 01:39:40 0° 348° (NNW) 3,334 7.8 -19.9°
